Location: Arleux
(50.3632°N, 2.8721°E)
Time: 01:47:50
(UTC+00:00)

N. Korean satellite - Pass Details

Date: 06 March 2021
Orbit: 453 x 499 km, 97.2° (Epoch: 11 April)

Event Time Altitude Azimuth Distance (km) Brightness Sun altitude
Rises 04:03:35 0° 33° (NNE) 2,533 11.0 -22.5°
Reaches altitude 10° 04:06:56 10° 68° (ENE) 1,660 10.4 -22.0°
Maximum altitude 04:08:11 12° 88° (E) 1,570 10.1 -21.8°
Drops below altitude 10° 04:09:27 10° 109° (ESE) 1,664 10.0 -21.7°
Sets 04:12:49 0° 144° (SE) 2,550 10.5 -21.1°
